Location: Wildcat Hills Observatory
(41.6350°N, 103.6812°W)
Time: 23:10:49
(UTC-07:00)

Cosmos 1331 Rocket - Pass Details

Date: 23 June 2018
Orbit: 750 x 777 km, 74.0° (Epoch: 08 December)

Event Time Altitude Azimuth Distance (km) Brightness Sun altitude
Rises 21:54:31 0° 339° (NNW) 3,223 8.6 -12.4°
Reaches altitude 10° 21:56:53 10° 340° (NNW) 2,297 7.7 -12.7°
Maximum altitude 22:02:06 86° 251° (WSW) 770 4.0 -13.4°
Enters shadow 22:06:05 18° 164° (SSE) 1,821 5.4 -13.9°
